LDE505 SAZB-SAVC

Flight info

Callsign LDE505
Flight time 1h 19m
Altitude 38000
Route SANBU2C SANBU UT693 TRE UP664 GATUD GATUD2U
Aircraft B737/M-SDE2E3FGHIRWXY/LB1

Departure

Time 2026-05-07 20:28
Airport Comandante Espora Airport (SAZB)

Arrival

Time 2026-05-07 21:47
Airport General Enrique Mosconi International Airport (SAVC)
Time Latitude Longitude Altitude Speed Heading
2026-05-07 20:05 -38.71642 -62.16310 256 ft 0 kts 274°
2026-05-07 20:13 -38.71642 -62.16305 256 ft 3 kts 273°
2026-05-07 20:14 -38.71640 -62.16272 256 ft 4 kts 259°
2026-05-07 20:14 -38.71638 -62.16244 256 ft 2 kts 278°
2026-05-07 20:14 -38.71642 -62.16214 256 ft 0 kts 278°
2026-05-07 20:18 -38.71641 -62.16215 256 ft 2 kts 279°
2026-05-07 20:18 -38.71614 -62.16240 256 ft 5 kts
2026-05-07 20:19 -38.71589 -62.16265 256 ft 5 kts 265°
2026-05-07 20:19 -38.71621 -62.16271 256 ft 5 kts 153°
2026-05-07 20:19 -38.71639 -62.16231 256 ft 5 kts 105°
2026-05-07 20:19 -38.71645 -62.16186 256 ft 5 kts 96°
2026-05-07 20:20 -38.71649 -62.16141 256 ft 5 kts 97°
2026-05-07 20:20 -38.71653 -62.16097 256 ft 5 kts 97°
2026-05-07 20:20 -38.71649 -62.16056 256 ft 5 kts 57°
2026-05-07 20:20 -38.71630 -62.16021 256 ft 5 kts 63°
2026-05-07 20:21 -38.71614 -62.15985 256 ft 5 kts 59°
2026-05-07 20:21 -38.71597 -62.15950 256 ft 5 kts 59°
2026-05-07 20:21 -38.71581 -62.15915 256 ft 4 kts 59°
2026-05-07 20:21 -38.71566 -62.15881 256 ft 4 kts 70°
2026-05-07 20:22 -38.71563 -62.15843 257 ft 4 kts 84°
2026-05-07 20:22 -38.71555 -62.15807 257 ft 4 kts 73°
2026-05-07 20:22 -38.71560 -62.15773 257 ft 4 kts 128°
2026-05-07 20:22 -38.71568 -62.15769 257 ft 1 kts 160°
2026-05-07 20:23 -38.71572 -62.15767 257 ft 1 kts 160°
2026-05-07 20:23 -38.71577 -62.15766 257 ft 1 kts 178°
2026-05-07 20:23 -38.71582 -62.15766 257 ft 1 kts 179°
2026-05-07 20:23 -38.71592 -62.15766 257 ft 1 kts 179°
2026-05-07 20:24 -38.71601 -62.15763 257 ft 1 kts 162°
2026-05-07 20:24 -38.71604 -62.15762 257 ft 0 kts 162°
2026-05-07 20:27 -38.71702 -62.15725 256 ft 48 kts 164°
2026-05-07 20:27 -38.72284 -62.15510 257 ft 122 kts 163°
2026-05-07 20:27 -38.73261 -62.15160 546 ft 159 kts 170°
2026-05-07 20:28 -38.74332 -62.14823 1508 ft 158 kts 180°
2026-05-07 20:28 -38.75475 -62.14632 2338 ft 175 kts 186°
2026-05-07 20:28 -38.76702 -62.14807 3161 ft 181 kts 196°
2026-05-07 20:28 -38.77900 -62.15357 4175 ft 183 kts 208°
2026-05-07 20:29 -38.78974 -62.16389 4842 ft 209 kts 221°
2026-05-07 20:29 -38.80103 -62.17701 5294 ft 233 kts 207°
2026-05-07 20:29 -38.81599 -62.18647 6094 ft 248 kts 206°
2026-05-07 20:29 -38.83155 -62.19634 7018 ft 253 kts 206°
2026-05-07 20:30 -38.84757 -62.20663 7991 ft 252 kts 208°
2026-05-07 20:30 -38.86307 -62.21710 9076 ft 255 kts 209°
2026-05-07 20:30 -38.87918 -62.22798 9822 ft 265 kts 210°
2026-05-07 20:30 -38.89567 -62.23911 10690 ft 271 kts 210°
2026-05-07 20:31 -38.91265 -62.25069 11503 ft 277 kts 210°
2026-05-07 20:31 -38.92970 -62.26236 12463 ft 282 kts 210°
2026-05-07 20:31 -38.94746 -62.27459 13187 ft 293 kts 209°
2026-05-07 20:31 -38.96548 -62.28703 14094 ft 296 kts 210°
2026-05-07 20:32 -38.98392 -62.29982 14703 ft 308 kts 210°
2026-05-07 20:32 -39.00289 -62.31300 15547 ft 310 kts 210°
2026-05-07 20:32 -39.02202 -62.32632 16337 ft 316 kts 210°
2026-05-07 20:32 -39.04157 -62.33995 17111 ft 322 kts 210°
2026-05-07 20:33 -39.06126 -62.35369 18025 ft 323 kts 211°
2026-05-07 20:33 -39.08119 -62.36763 18692 ft 329 kts 210°
2026-05-07 20:33 -39.10126 -62.38165 19545 ft 327 kts 210°
2026-05-07 20:33 -39.12155 -62.39585 19996 ft 342 kts 211°
2026-05-07 20:34 -39.14284 -62.41080 20146 ft 363 kts 211°
2026-05-07 20:34 -39.16562 -62.42679 20259 ft 383 kts 210°
2026-05-07 20:34 -39.18957 -62.44358 20424 ft 400 kts 210°
2026-05-07 20:34 -39.21459 -62.46115 20492 ft 418 kts 210°
2026-05-07 20:35 -39.24050 -62.47934 20737 ft 429 kts 210°
2026-05-07 20:35 -39.26689 -62.49788 21299 ft 430 kts 210°
2026-05-07 20:35 -39.29329 -62.51643 21813 ft 434 kts 210°
2026-05-07 20:35 -39.31976 -62.53505 22405 ft 434 kts 210°
2026-05-07 20:36 -39.34628 -62.55374 23012 ft 434 kts 210°
2026-05-07 20:36 -39.37304 -62.57262 23364 ft 440 kts 210°
2026-05-07 20:36 -39.40001 -62.59167 23744 ft 443 kts 209°
2026-05-07 20:36 -39.42712 -62.61084 24085 ft 445 kts 210°
2026-05-07 20:37 -39.45436 -62.63011 24539 ft 446 kts 209°
2026-05-07 20:37 -39.48132 -62.64919 24905 ft 448 kts 209°
2026-05-07 20:37 -39.50869 -62.66859 25297 ft 449 kts 209°
2026-05-07 20:37 -39.53630 -62.68790 25584 ft 452 kts 209°
2026-05-07 20:38 -39.56414 -62.70714 25880 ft 455 kts 208°
2026-05-07 20:38 -39.59216 -62.72644 26171 ft 457 kts 208°
2026-05-07 20:38 -39.62026 -62.74579 26520 ft 457 kts 208°
2026-05-07 20:38 -39.64824 -62.76509 27010 ft 454 kts 208°
2026-05-07 20:39 -39.67601 -62.78430 27497 ft 452 kts 208°
2026-05-07 20:39 -39.70372 -62.80351 27954 ft 451 kts 208°
2026-05-07 20:39 -39.73139 -62.82272 28370 ft 451 kts 208°
2026-05-07 20:39 -39.75883 -62.84181 29156 ft 440 kts 208°
2026-05-07 20:40 -39.78550 -62.86037 30075 ft 431 kts 208°
2026-05-07 20:40 -39.81160 -62.87855 30399 ft 433 kts 208°
2026-05-07 20:40 -39.83839 -62.89723 30515 ft 440 kts 208°
2026-05-07 20:40 -39.86547 -62.91612 30761 ft 441 kts 208°
2026-05-07 20:41 -39.89249 -62.93500 31120 ft 440 kts 208°
2026-05-07 20:41 -39.91943 -62.95384 31484 ft 440 kts 208°
2026-05-07 20:41 -39.94650 -62.97279 31765 ft 441 kts 208°
2026-05-07 20:41 -39.97358 -62.99178 32028 ft 442 kts 208°
2026-05-07 20:42 -40.00069 -63.01078 32309 ft 443 kts 208°
2026-05-07 20:42 -40.02783 -63.02982 32617 ft 443 kts 208°
2026-05-07 20:42 -40.05502 -63.04892 32919 ft 443 kts 208°
2026-05-07 20:42 -40.08185 -63.06777 33182 ft 444 kts 208°
2026-05-07 20:43 -40.10914 -63.08697 33447 ft 445 kts 208°
2026-05-07 20:43 -40.13640 -63.10617 33741 ft 445 kts 209°
2026-05-07 20:43 -40.16365 -63.12537 33986 ft 445 kts 209°
2026-05-07 20:43 -40.19087 -63.14458 34428 ft 439 kts 208°
2026-05-07 20:44 -40.21748 -63.16338 34917 ft 433 kts 209°
2026-05-07 20:44 -40.24411 -63.18220 35028 ft 437 kts 209°
2026-05-07 20:44 -40.27106 -63.20128 35096 ft 442 kts 209°
2026-05-07 20:44 -40.29808 -63.22041 35300 ft 442 kts 209°
2026-05-07 20:45 -40.32511 -63.23957 35571 ft 440 kts 209°
2026-05-07 20:45 -40.35200 -63.25865 35830 ft 440 kts 209°
2026-05-07 20:45 -40.37892 -63.27776 36077 ft 439 kts 209°
2026-05-07 20:45 -40.40576 -63.29683 36317 ft 439 kts 209°
2026-05-07 20:46 -40.43262 -63.31595 36507 ft 440 kts 209°
2026-05-07 20:46 -40.45958 -63.33515 36703 ft 441 kts 209°
2026-05-07 20:46 -40.48618 -63.35411 36925 ft 441 kts 209°
2026-05-07 20:46 -40.51312 -63.37332 37145 ft 441 kts 209°
2026-05-07 20:47 -40.54007 -63.39256 37342 ft 441 kts 209°
2026-05-07 20:47 -40.56704 -63.41184 37528 ft 442 kts 209°
2026-05-07 20:47 -40.59411 -63.43119 37726 ft 442 kts 209°
2026-05-07 20:47 -40.62108 -63.45050 38049 ft 439 kts 209°
2026-05-07 20:48 -40.64774 -63.46961 38426 ft 435 kts 209°
2026-05-07 20:48 -40.67437 -63.48871 38545 ft 437 kts 209°
2026-05-07 20:48 -40.70116 -63.50797 38592 ft 439 kts 209°
2026-05-07 20:48 -40.72806 -63.52731 38711 ft 440 kts 209°
2026-05-07 20:49 -40.75492 -63.54663 38879 ft 439 kts 210°
2026-05-07 20:49 -40.78164 -63.56586 39047 ft 438 kts 210°
2026-05-07 20:49 -40.80839 -63.58513 39181 ft 438 kts 210°
2026-05-07 20:49 -40.83486 -63.60424 39306 ft 439 kts 210°
2026-05-07 20:50 -40.86161 -63.62358 39460 ft 438 kts 210°
2026-05-07 20:50 -40.88836 -63.64292 39598 ft 438 kts 210°
2026-05-07 20:50 -40.91508 -63.66223 39715 ft 439 kts 209°
2026-05-07 20:51 -40.96976 -63.69907 39756 ft 442 kts 207°
2026-05-07 20:51 -41.02502 -63.73478 39764 ft 441 kts 207°
2026-05-07 20:52 -41.08000 -63.77053 39770 ft 439 kts 207°
2026-05-07 20:52 -41.13447 -63.80632 39773 ft 436 kts 207°
2026-05-07 20:53 -41.18863 -63.84217 39765 ft 434 kts 207°
2026-05-07 20:53 -41.24220 -63.87770 39768 ft 432 kts 208°
2026-05-07 20:54 -41.29580 -63.91331 39775 ft 430 kts 208°
2026-05-07 20:54 -41.34925 -63.94888 39763 ft 430 kts 207°
2026-05-07 20:55 -41.40271 -63.98450 39770 ft 429 kts 208°
2026-05-07 20:55 -41.45616 -64.02018 39780 ft 428 kts 208°
2026-05-07 20:56 -41.50040 -64.04977 39765 ft 428 kts 208°
2026-05-07 20:56 -41.55361 -64.08541 39715 ft 429 kts 208°
2026-05-07 20:56 -41.58046 -64.10343 39457 ft 434 kts 208°
2026-05-07 20:57 -41.61618 -64.12742 39191 ft 433 kts 208°
2026-05-07 20:57 -41.63439 -64.13966 39034 ft 433 kts 208°
2026-05-07 20:57 -41.66118 -64.15766 38817 ft 428 kts 208°
2026-05-07 20:57 -41.68764 -64.17547 38602 ft 424 kts 208°
2026-05-07 20:58 -41.71396 -64.19320 38356 ft 425 kts 207°
2026-05-07 20:58 -41.74006 -64.21080 38159 ft 426 kts 208°
2026-05-07 20:58 -41.76649 -64.22868 38235 ft 426 kts 207°
2026-05-07 20:59 -41.82004 -64.26489 38246 ft 432 kts 208°
2026-05-07 20:59 -41.87379 -64.30131 38255 ft 434 kts 208°
2026-05-07 21:00 -41.92754 -64.33778 38651 ft 430 kts 208°
2026-05-07 21:00 -41.95428 -64.35595 38768 ft 430 kts 208°
2026-05-07 21:00 -41.98101 -64.37413 38853 ft 432 kts 208°
2026-05-07 21:00 -42.00787 -64.39242 38963 ft 432 kts 208°
2026-05-07 21:01 -42.03430 -64.41044 39197 ft 430 kts 208°
2026-05-07 21:01 -42.06092 -64.42862 39411 ft 428 kts 208°
2026-05-07 21:01 -42.08744 -64.44671 39623 ft 426 kts 208°
2026-05-07 21:01 -42.11378 -64.46470 39806 ft 425 kts 208°
2026-05-07 21:02 -42.14025 -64.48281 39784 ft 428 kts 208°
2026-05-07 21:02 -42.19367 -64.51945 39811 ft 433 kts 208°
2026-05-07 21:03 -42.24760 -64.55647 39805 ft 436 kts 208°
2026-05-07 21:03 -42.30166 -64.59366 39811 ft 436 kts 208°
2026-05-07 21:04 -42.35576 -64.63093 39805 ft 436 kts 208°
2026-05-07 21:04 -42.40969 -64.66859 39815 ft 435 kts 209°
2026-05-07 21:05 -42.46277 -64.70683 39807 ft 434 kts 209°
2026-05-07 21:05 -42.51593 -64.74530 39831 ft 431 kts 209°
2026-05-07 21:06 -42.56882 -64.78355 39816 ft 430 kts 209°
2026-05-07 21:06 -42.62155 -64.82170 39804 ft 429 kts 209°
2026-05-07 21:07 -42.67413 -64.85977 39815 ft 427 kts 209°
2026-05-07 21:07 -42.72655 -64.89780 39812 ft 427 kts 209°
2026-05-07 21:08 -42.77868 -64.93570 39822 ft 427 kts 209°
2026-05-07 21:08 -42.83112 -64.97390 39817 ft 427 kts 209°
2026-05-07 21:09 -42.88356 -65.01218 39824 ft 428 kts 209°
2026-05-07 21:09 -42.93616 -65.05064 39827 ft 429 kts 209°
2026-05-07 21:10 -42.98871 -65.08915 39854 ft 429 kts 210°
2026-05-07 21:10 -43.04105 -65.12759 39855 ft 430 kts 210°
2026-05-07 21:11 -43.09381 -65.16641 39849 ft 430 kts 210°
2026-05-07 21:11 -43.17288 -65.22472 39856 ft 430 kts 210°
2026-05-07 21:12 -43.22533 -65.26391 39870 ft 429 kts 211°
2026-05-07 21:12 -43.27705 -65.30467 39855 ft 428 kts 211°
2026-05-07 21:13 -43.32856 -65.34570 39856 ft 427 kts 211°
2026-05-07 21:13 -43.38010 -65.38665 39846 ft 427 kts 211°
2026-05-07 21:14 -43.43155 -65.42742 39856 ft 426 kts 211°
2026-05-07 21:14 -43.48280 -65.46809 39836 ft 425 kts 211°
2026-05-07 21:15 -43.53366 -65.50855 39845 ft 424 kts 211°
2026-05-07 21:15 -43.58471 -65.54922 39838 ft 424 kts 211°
2026-05-07 21:16 -43.63574 -65.58991 39848 ft 424 kts 211°
2026-05-07 21:16 -43.68671 -65.63072 39857 ft 422 kts 211°
2026-05-07 21:17 -43.73752 -65.67147 39851 ft 422 kts 211°
2026-05-07 21:17 -43.78842 -65.71235 39859 ft 422 kts 211°
2026-05-07 21:18 -43.83922 -65.75327 39857 ft 423 kts 211°
2026-05-07 21:18 -43.89011 -65.79432 39869 ft 422 kts 211°
2026-05-07 21:19 -43.94081 -65.83526 39865 ft 421 kts 211°
2026-05-07 21:19 -43.99112 -65.87602 39869 ft 421 kts 212°
2026-05-07 21:20 -44.04251 -65.91503 39867 ft 421 kts 209°
2026-05-07 21:20 -44.09476 -65.95213 39879 ft 421 kts 208°
2026-05-07 21:21 -44.14687 -65.98934 39878 ft 420 kts 209°
2026-05-07 21:21 -44.19873 -66.02682 39883 ft 420 kts 209°
2026-05-07 21:22 -44.25050 -66.06445 39881 ft 419 kts 209°
2026-05-07 21:22 -44.30193 -66.10205 39892 ft 420 kts 209°
2026-05-07 21:23 -44.35370 -66.13996 39887 ft 420 kts 209°
2026-05-07 21:23 -44.40537 -66.17773 39906 ft 418 kts 209°
2026-05-07 21:24 -44.43126 -66.19672 39779 ft 421 kts 209°
2026-05-07 21:24 -44.45732 -66.21588 39295 ft 423 kts 209°
2026-05-07 21:24 -44.48325 -66.23493 38749 ft 420 kts 209°
2026-05-07 21:24 -44.50924 -66.25404 37912 ft 421 kts 209°
2026-05-07 21:25 -44.53509 -66.27307 37199 ft 419 kts 209°
2026-05-07 21:25 -44.56047 -66.29180 36514 ft 417 kts 209°
2026-05-07 21:25 -44.58610 -66.31073 35838 ft 416 kts 209°
2026-05-07 21:25 -44.61171 -66.32968 35080 ft 417 kts 209°
2026-05-07 21:26 -44.63749 -66.34877 34275 ft 419 kts 209°
2026-05-07 21:26 -44.66336 -66.36794 33368 ft 422 kts 209°
2026-05-07 21:26 -44.68939 -66.38730 32476 ft 425 kts 209°
2026-05-07 21:26 -44.71537 -66.40718 31556 ft 426 kts 210°
2026-05-07 21:27 -44.74166 -66.42648 30604 ft 427 kts 207°
2026-05-07 21:27 -44.76814 -66.44555 29574 ft 427 kts 208°
2026-05-07 21:27 -44.79448 -66.46514 28432 ft 429 kts 208°
2026-05-07 21:27 -44.82091 -66.48484 27300 ft 430 kts 207°
2026-05-07 21:28 -44.84738 -66.50437 26141 ft 430 kts 207°
2026-05-07 21:28 -44.87384 -66.52420 25215 ft 427 kts 207°
2026-05-07 21:28 -44.89991 -66.54383 24365 ft 421 kts 207°
2026-05-07 21:28 -44.92547 -66.56305 23548 ft 415 kts 207°
2026-05-07 21:29 -44.95092 -66.58215 22564 ft 410 kts 207°
2026-05-07 21:29 -44.97562 -66.60068 21724 ft 403 kts 207°
2026-05-07 21:29 -45.00019 -66.61910 20900 ft 397 kts 207°
2026-05-07 21:29 -45.02447 -66.63733 20071 ft 393 kts 208°
2026-05-07 21:30 -45.04865 -66.65550 19131 ft 392 kts 208°
2026-05-07 21:30 -45.07259 -66.67351 18215 ft 389 kts 208°
2026-05-07 21:30 -45.09666 -66.69164 17010 ft 393 kts 208°
2026-05-07 21:30 -45.12059 -66.70970 16085 ft 389 kts 208°
2026-05-07 21:31 -45.14444 -66.72770 15228 ft 385 kts 208°
2026-05-07 21:31 -45.16787 -66.74541 14417 ft 378 kts 208°
2026-05-07 21:31 -45.19103 -66.76292 13616 ft 375 kts 207°
2026-05-07 21:31 -45.21393 -66.78025 12768 ft 371 kts 207°
2026-05-07 21:32 -45.23633 -66.79725 12112 ft 359 kts 207°
2026-05-07 21:32 -45.25827 -66.81391 11357 ft 353 kts 207°
2026-05-07 21:32 -45.27947 -66.83002 10672 ft 344 kts 207°
2026-05-07 21:32 -45.29984 -66.84552 10635 ft 320 kts 207°
2026-05-07 21:33 -45.31894 -66.86007 10529 ft 301 kts 206°
2026-05-07 21:33 -45.33666 -66.87357 10395 ft 285 kts 206°
2026-05-07 21:33 -45.35371 -66.88654 10285 ft 270 kts 206°
2026-05-07 21:33 -45.36984 -66.89883 10180 ft 256 kts 206°
2026-05-07 21:34 -45.38510 -66.91045 10081 ft 243 kts 206°
2026-05-07 21:34 -45.39960 -66.92151 9980 ft 231 kts 207°
2026-05-07 21:34 -45.41352 -66.93212 9754 ft 225 kts 207°
2026-05-07 21:34 -45.42711 -66.94249 9510 ft 219 kts 206°
2026-05-07 21:35 -45.44038 -66.95263 9244 ft 214 kts 206°
2026-05-07 21:35 -45.45322 -66.96247 8979 ft 210 kts 205°
2026-05-07 21:35 -45.46595 -66.97221 8702 ft 206 kts 205°
2026-05-07 21:35 -45.47868 -66.98192 8427 ft 210 kts 205°
2026-05-07 21:36 -45.49184 -66.99197 8131 ft 218 kts 205°
2026-05-07 21:36 -45.50533 -67.00228 7836 ft 221 kts 205°
2026-05-07 21:36 -45.51882 -67.01264 7547 ft 218 kts 205°
2026-05-07 21:36 -45.53210 -67.02284 7223 ft 216 kts 206°
2026-05-07 21:37 -45.54513 -67.03286 6989 ft 210 kts 205°
2026-05-07 21:37 -45.55793 -67.04268 6713 ft 208 kts 205°
2026-05-07 21:37 -45.57060 -67.05242 6438 ft 206 kts 205°
2026-05-07 21:37 -45.58312 -67.06204 6178 ft 203 kts 205°
2026-05-07 21:38 -45.59541 -67.07151 5917 ft 199 kts 205°
2026-05-07 21:38 -45.60764 -67.08089 5647 ft 202 kts 205°
2026-05-07 21:38 -45.62029 -67.09060 5362 ft 211 kts 205°
2026-05-07 21:38 -45.63312 -67.10050 5218 ft 204 kts 205°
2026-05-07 21:39 -45.64531 -67.10990 5087 ft 194 kts 205°
2026-05-07 21:39 -45.65684 -67.11878 4971 ft 184 kts 205°
2026-05-07 21:39 -45.66803 -67.12743 4818 ft 179 kts 205°
2026-05-07 21:39 -45.67891 -67.13583 4526 ft 181 kts 205°
2026-05-07 21:40 -45.68968 -67.14418 4418 ft 172 kts 205°
2026-05-07 21:40 -45.70016 -67.15224 4338 ft 171 kts 204°
2026-05-07 21:40 -45.71076 -67.16039 4304 ft 174 kts 204°
2026-05-07 21:40 -45.72131 -67.16856 4155 ft 170 kts 205°
2026-05-07 21:41 -45.73142 -67.17639 3939 ft 161 kts 204°
2026-05-07 21:41 -45.74099 -67.18385 3723 ft 153 kts 206°
2026-05-07 21:41 -45.74807 -67.19493 3515 ft 153 kts 231°
2026-05-07 21:41 -45.75130 -67.20962 3307 ft 154 kts 245°
2026-05-07 21:42 -45.75331 -67.22444 3104 ft 147 kts 246°
2026-05-07 21:42 -45.75455 -67.23386 2977 ft 144 kts 246°
2026-05-07 21:42 -45.75646 -67.24773 2848 ft 140 kts 245°
2026-05-07 21:42 -45.75842 -67.26130 2711 ft 141 kts 246°
2026-05-07 21:43 -45.76027 -67.27508 2543 ft 140 kts 247°
2026-05-07 21:43 -45.76201 -67.28852 2354 ft 135 kts 246°
2026-05-07 21:43 -45.76375 -67.30168 2195 ft 136 kts 247°
2026-05-07 21:43 -45.76550 -67.31505 2008 ft 135 kts 246°
2026-05-07 21:44 -45.76719 -67.32809 1831 ft 132 kts 246°
2026-05-07 21:44 -45.76880 -67.34070 1661 ft 127 kts 245°
2026-05-07 21:44 -45.77044 -67.35305 1534 ft 125 kts 245°
2026-05-07 21:44 -45.77197 -67.36507 1320 ft 119 kts 244°
2026-05-07 21:45 -45.77350 -67.37638 1156 ft 113 kts 243°
2026-05-07 21:45 -45.77495 -67.38738 1032 ft 112 kts 244°
2026-05-07 21:45 -45.77642 -67.39858 998 ft 116 kts 246°
2026-05-07 21:45 -45.77798 -67.41017 850 ft 121 kts 244°
2026-05-07 21:46 -45.77949 -67.42181 673 ft 118 kts 250°
2026-05-07 21:46 -45.78098 -67.43330 470 ft 114 kts 248°
2026-05-07 21:46 -45.78246 -67.44423 282 ft 114 kts 251°
2026-05-07 21:46 -45.78387 -67.45520 202 ft 101 kts 254°
2026-05-07 21:47 -45.78480 -67.46197 204 ft 39 kts 260°
2026-05-07 21:47 -45.78525 -67.46550 205 ft 34 kts 259°
2026-05-07 21:47 -45.78558 -67.46778 201 ft 18 kts 237°
2026-05-07 21:47 -45.78676 -67.46807 201 ft 18 kts 178°
2026-05-07 21:48 -45.78797 -67.46802 201 ft 17 kts 177°
2026-05-07 21:48 -45.78876 -67.46798 205 ft 5 kts 179°
2026-05-07 21:48 -45.78912 -67.46797 205 ft 5 kts 178°
2026-05-07 21:48 -45.78937 -67.46807 207 ft 4 kts 219°
2026-05-07 21:49 -45.78951 -67.46824 195 ft 0 kts 220°